Time,TemperatureF,DewpointF,PressureIn,WindDirection,WindDirectionDegrees,WindSpeedMPH,WindSpeedGustMPH,Humidity,HourlyPrecipIn,Conditions,Clouds,dailyrainin,SoftwareType,DateUTC
2013-04-11 00:03:00,-999.0,-99.9,29.97,North,-999,-999.0,-999.0,-999,-99.99,,,0.00,weatherlink.com 1.10,2013-04-11 04:03:00,
2013-04-11 00:18:00,-999.0,-99.9,29.97,North,-999,-999.0,-999.0,-999,-99.99,,,0.00,weatherlink.com 1.10,2013-04-11 04:18:00,
2013-04-11 00:33:00,-999.0,-99.9,29.97,North,-999,-999.0,-999.0,-999,-99.99,,,0.00,weatherlink.com 1.10,2013-04-11 04:33:00,
2013-04-11 00:47:00,-999.0,-99.9,29.95,North,-999,-999.0,-999.0,-999,-99.99,,,0.00,weatherlink.com 1.10,2013-04-11 04:47:00,
2013-04-11 01:03:00,-999.0,-99.9,29.96,North,-999,-999.0,-999.0,-999,-99.99,,,0.00,weatherlink.com 1.10,2013-04-11 05:03:00,
2013-04-11 01:17:00,-999.0,-99.9,29.98,North,-999,-999.0,-999.0,-999,-99.99,,,0.00,weatherlink.com 1.10,2013-04-11 05:17:00,
2013-04-11 01:32:00,-999.0,-99.9,29.96,North,-999,-999.0,-999.0,-999,-99.99,,,0.00,weatherlink.com 1.10,2013-04-11 05:32:00,
2013-04-11 01:47:00,-999.0,-99.9,29.96,North,-999,-999.0,-999.0,-999,-99.99,,,0.00,weatherlink.com 1.10,2013-04-11 05:47:00,
2013-04-11 02:03:00,-999.0,-99.9,29.95,North,-999,-999.0,-999.0,-999,-99.99,,,0.00,weatherlink.com 1.10,2013-04-11 06:03:00,
2013-04-11 02:18:00,-999.0,-99.9,29.96,North,-999,-999.0,-999.0,-999,-99.99,,,0.00,weatherlink.com 1.10,2013-04-11 06:18:00,
2013-04-11 02:47:00,-999.0,-99.9,29.95,North,-999,-999.0,-999.0,-999,-99.99,,,0.00,weatherlink.com 1.10,2013-04-11 06:47:00,
2013-04-11 03:03:00,-999.0,-99.9,29.98,North,-999,-999.0,-999.0,-999,-99.99,,,0.00,weatherlink.com 1.10,2013-04-11 07:03:00,
2013-04-11 03:17:00,-999.0,-99.9,29.98,North,-999,-999.0,-999.0,-999,-99.99,,,0.00,weatherlink.com 1.10,2013-04-11 07:17:00,
2013-04-11 03:32:00,-999.0,-99.9,29.99,North,-999,-999.0,-999.0,-999,-99.99,,,0.00,weatherlink.com 1.10,2013-04-11 07:32:00,
2013-04-11 03:47:00,-999.0,-99.9,29.99,North,-999,-999.0,-999.0,-999,-99.99,,,0.00,weatherlink.com 1.10,2013-04-11 07:47:00,
2013-04-11 04:03:00,-999.0,-99.9,30.01,North,-999,-999.0,-999.0,-999,-99.99,,,0.00,weatherlink.com 1.10,2013-04-11 08:03:00,
2013-04-11 04:17:00,-999.0,-99.9,30.01,North,-999,-999.0,-999.0,-999,-99.99,,,0.00,weatherlink.com 1.10,2013-04-11 08:17:00,
2013-04-11 04:33:00,-999.0,-99.9,30.02,North,-999,-999.0,-999.0,-999,-99.99,,,0.00,weatherlink.com 1.10,2013-04-11 08:33:00,
2013-04-11 04:47:00,-999.0,-99.9,30.02,North,-999,-999.0,-999.0,-999,-99.99,,,0.00,weatherlink.com 1.10,2013-04-11 08:47:00,
2013-04-11 05:03:00,-999.0,-99.9,30.01,North,-999,-999.0,-999.0,-999,-99.99,,,0.00,weatherlink.com 1.10,2013-04-11 09:03:00,
2013-04-11 05:17:00,-999.0,-99.9,30.00,North,-999,-999.0,-999.0,-999,-99.99,,,0.00,weatherlink.com 1.10,2013-04-11 09:17:00,
2013-04-11 05:33:00,-999.0,-99.9,30.00,North,-999,-999.0,-999.0,-999,-99.99,,,0.00,weatherlink.com 1.10,2013-04-11 09:33:00,
2013-04-11 05:48:00,-999.0,-99.9,30.01,North,-999,-999.0,-999.0,-999,-99.99,,,0.00,weatherlink.com 1.10,2013-04-11 09:48:00,
2013-04-11 06:03:00,-999.0,-99.9,30.00,North,-999,-999.0,-999.0,-999,-99.99,,,0.00,weatherlink.com 1.10,2013-04-11 10:03:00,
2013-04-11 06:18:00,-999.0,-99.9,30.00,North,-999,-999.0,-999.0,-999,-99.99,,,0.00,weatherlink.com 1.10,2013-04-11 10:18:00,
2013-04-11 06:33:00,-999.0,-99.9,30.00,North,-999,-999.0,-999.0,-999,-99.99,,,0.00,weatherlink.com 1.10,2013-04-11 10:33:00,
2013-04-11 06:48:00,-999.0,-99.9,30.00,North,-999,-999.0,-999.0,-999,-99.99,,,0.00,weatherlink.com 1.10,2013-04-11 10:48:00,
2013-04-11 07:03:00,-999.0,-99.9,29.99,North,-999,-999.0,-999.0,-999,-99.99,,,0.00,weatherlink.com 1.10,2013-04-11 11:03:00,
2013-04-11 07:18:00,-999.0,-99.9,30.02,North,-999,-999.0,-999.0,-999,-99.99,,,0.00,weatherlink.com 1.10,2013-04-11 11:18:00,
2013-04-11 07:33:00,-999.0,-99.9,30.03,North,-999,-999.0,-999.0,-999,-99.99,,,0.00,weatherlink.com 1.10,2013-04-11 11:33:00,
2013-04-11 07:47:00,-999.0,-99.9,30.02,North,-999,-999.0,-999.0,-999,-99.99,,,0.00,weatherlink.com 1.10,2013-04-11 11:47:00,
2013-04-11 08:03:00,-999.0,-99.9,30.00,North,-999,-999.0,-999.0,-999,-99.99,,,0.00,weatherlink.com 1.10,2013-04-11 12:03:00,
2013-04-11 08:18:00,-999.0,-99.9,30.01,North,-999,-999.0,-999.0,-999,-99.99,,,0.00,weatherlink.com 1.10,2013-04-11 12:18:00,
2013-04-11 08:32:00,-999.0,-99.9,30.02,North,-999,-999.0,-999.0,-999,-99.99,,,0.00,weatherlink.com 1.10,2013-04-11 12:32:00,
2013-04-11 08:47:00,-999.0,-99.9,30.02,North,-999,-999.0,-999.0,-999,-99.99,,,0.00,weatherlink.com 1.10,2013-04-11 12:47:00,
2013-04-11 09:03:00,-999.0,-99.9,30.06,North,-999,-999.0,-999.0,-999,-99.99,,,0.00,weatherlink.com 1.10,2013-04-11 13:03:00,
2013-04-11 09:18:00,-999.0,-99.9,30.04,North,-999,-999.0,-999.0,-999,-99.99,,,0.00,weatherlink.com 1.10,2013-04-11 13:18:00,
2013-04-11 09:33:00,-999.0,-99.9,30.05,North,-999,-999.0,-999.0,-999,-99.99,,,0.00,weatherlink.com 1.10,2013-04-11 13:33:00,
2013-04-11 09:48:00,-999.0,-99.9,30.07,North,-999,-999.0,-999.0,-999,-99.99,,,0.00,weatherlink.com 1.10,2013-04-11 13:48:00,
2013-04-11 10:03:00,35.2,16.0,30.12,North,5,1.0,-999.0,45,-99.99,,,0.00,weatherlink.com 1.10,2013-04-11 14:03:00,
2013-04-11 10:18:00,35.2,15.0,30.11,North,355,0.0,-999.0,44,-99.99,,,0.03,weatherlink.com 1.10,2013-04-11 14:18:00,
2013-04-11 10:33:00,35.1,15.0,30.11,NE,40,5.0,-999.0,43,-99.99,,,0.04,weatherlink.com 1.10,2013-04-11 14:33:00,
2013-04-11 10:48:00,34.8,14.0,30.10,ENE,59,4.0,-999.0,42,-99.99,,,0.05,weatherlink.com 1.10,2013-04-11 14:48:00,
2013-04-11 11:03:00,35.0,14.0,30.15,NE,36,2.0,-999.0,42,-99.99,,,0.06,weatherlink.com 1.10,2013-04-11 15:03:00,
2013-04-11 11:18:00,34.7,13.0,30.14,ENE,61,0.0,-999.0,41,-99.99,,,0.10,weatherlink.com 1.10,2013-04-11 15:18:00,
2013-04-11 11:33:00,34.8,13.0,30.13,ENE,60,2.0,-999.0,40,-99.99,,,0.12,weatherlink.com 1.10,2013-04-11 15:33:00,
2013-04-11 11:48:00,35.0,12.0,30.12,ENE,68,6.0,-999.0,39,-99.99,,,0.13,weatherlink.com 1.10,2013-04-11 15:48:00,
2013-04-11 12:03:00,35.8,12.0,30.09,ENE,71,12.0,-999.0,38,-99.99,,,0.14,weatherlink.com 1.10,2013-04-11 16:03:00,
2013-04-11 12:18:00,35.8,12.0,30.11,NE,53,4.0,-999.0,38,-99.99,,,0.14,weatherlink.com 1.10,2013-04-11 16:18:00,
2013-04-11 12:33:00,35.8,13.0,30.11,NNE,19,8.0,-999.0,39,-99.99,,,0.14,weatherlink.com 1.10,2013-04-11 16:33:00,
2013-04-11 12:48:00,35.7,13.0,30.11,ENE,63,7.0,-999.0,39,-99.99,,,0.14,weatherlink.com 1.10,2013-04-11 16:48:00,
2013-04-11 13:03:00,35.7,13.0,30.10,North,11,5.0,-999.0,40,-99.99,,,0.14,weatherlink.com 1.10,2013-04-11 17:03:00,
2013-04-11 13:18:00,35.9,14.0,30.08,NE,41,10.0,-999.0,40,-99.99,,,0.14,weatherlink.com 1.10,2013-04-11 17:18:00,
2013-04-11 13:33:00,36.0,14.0,30.10,NE,53,4.0,-999.0,40,-99.99,,,0.14,weatherlink.com 1.10,2013-04-11 17:33:00,
2013-04-11 13:48:00,35.5,14.0,30.10,NNE,30,7.0,-999.0,41,-99.99,,,0.14,weatherlink.com 1.10,2013-04-11 17:48:00,
2013-04-11 14:03:00,35.5,13.0,30.10,NNE,25,7.0,-999.0,40,-99.99,,,0.14,weatherlink.com 1.10,2013-04-11 18:03:00,
2013-04-11 14:18:00,35.3,12.0,30.10,East,92,6.0,-999.0,39,-99.99,,,0.15,weatherlink.com 1.10,2013-04-11 18:18:00,
2013-04-11 14:33:00,35.5,13.0,30.08,ENE,69,5.0,-999.0,39,-99.99,,,0.15,weatherlink.com 1.10,2013-04-11 18:33:00,
2013-04-11 14:48:00,35.4,12.0,30.08,NE,43,5.0,-999.0,38,-99.99,,,0.15,weatherlink.com 1.10,2013-04-11 18:48:00,
2013-04-11 15:03:00,35.4,12.0,30.09,NE,45,4.0,-999.0,38,-99.99,,,0.15,weatherlink.com 1.10,2013-04-11 19:03:00,
2013-04-11 15:18:00,35.7,12.0,30.08,NE,56,5.0,-999.0,38,-99.99,,,0.15,weatherlink.com 1.10,2013-04-11 19:18:00,
2013-04-11 15:33:00,36.1,13.0,30.09,NNE,32,4.0,-999.0,38,-99.99,,,0.15,weatherlink.com 1.10,2013-04-11 19:33:00,
2013-04-11 15:48:00,36.1,13.0,30.09,ENE,59,4.0,-999.0,38,-99.99,,,0.15,weatherlink.com 1.10,2013-04-11 19:48:00,
2013-04-11 16:03:00,36.5,13.0,30.07,NE,40,3.0,-999.0,38,-99.99,,,0.15,weatherlink.com 1.10,2013-04-11 20:03:00,
2013-04-11 16:18:00,36.8,13.0,30.09,NNE,17,0.0,-999.0,38,-99.99,,,0.15,weatherlink.com 1.10,2013-04-11 20:18:00,
2013-04-11 16:33:00,36.4,13.0,30.08,NE,40,8.0,-999.0,38,-99.99,,,0.15,weatherlink.com 1.10,2013-04-11 20:33:00,
2013-04-11 16:48:00,35.9,12.0,30.07,NNE,28,8.0,-999.0,38,-99.99,,,0.15,weatherlink.com 1.10,2013-04-11 20:48:00,
2013-04-11 17:03:00,35.7,12.0,30.06,NE,49,3.0,-999.0,38,-99.99,,,0.16,weatherlink.com 1.10,2013-04-11 21:03:00,
2013-04-11 17:18:00,35.5,12.0,30.07,NE,49,5.0,-999.0,38,-99.99,,,0.16,weatherlink.com 1.10,2013-04-11 21:18:00,
2013-04-11 17:33:00,35.4,12.0,30.06,NE,53,7.0,-999.0,38,-99.99,,,0.17,weatherlink.com 1.10,2013-04-11 21:33:00,
2013-04-11 17:48:00,35.5,12.0,30.07,NNE,19,3.0,-999.0,38,-99.99,,,0.18,weatherlink.com 1.10,2013-04-11 21:48:00,
2013-04-11 18:03:00,35.3,11.0,30.07,NE,38,6.0,-999.0,37,-99.99,,,0.18,weatherlink.com 1.10,2013-04-11 22:03:00,
2013-04-11 18:18:00,35.2,11.0,30.07,NNE,29,0.0,-999.0,37,-99.99,,,0.19,weatherlink.com 1.10,2013-04-11 22:18:00,
2013-04-11 18:33:00,-90.0,-99.9,30.06,NE,51,11.0,-999.0,37,-99.99,,,0.20,weatherlink.com 1.10,2013-04-11 22:33:00,
2013-04-11 18:48:00,-90.0,-99.9,30.05,East,89,7.0,-999.0,37,-99.99,,,0.20,weatherlink.com 1.10,2013-04-11 22:48:00,
2013-04-11 19:03:00,-90.0,-99.9,30.04,ENE,68,10.0,-999.0,37,-99.99,,,0.20,weatherlink.com 1.10,2013-04-11 23:03:00,
2013-04-11 19:18:00,-90.0,-99.9,30.04,NE,55,2.0,-999.0,37,-99.99,,,0.20,weatherlink.com 1.10,2013-04-11 23:18:00,
2013-04-11 19:33:00,-90.0,-99.9,30.05,NE,50,2.0,-999.0,-999,-99.99,,,0.20,weatherlink.com 1.10,2013-04-11 23:33:00,
2013-04-11 19:48:00,-90.0,-99.9,30.07,ENE,78,6.0,-999.0,-999,-99.99,,,0.20,weatherlink.com 1.10,2013-04-11 23:48:00,
2013-04-11 20:03:00,-90.0,-99.9,30.07,ENE,61,7.0,-999.0,-999,-99.99,,,0.20,weatherlink.com 1.10,2013-04-12 00:03:00,
2013-04-11 20:18:00,-90.0,-99.9,30.07,ENE,58,4.0,-999.0,-999,-99.99,,,0.20,weatherlink.com 1.10,2013-04-12 00:18:00,
2013-04-11 20:33:00,-90.0,-99.9,30.07,East,87,7.0,-999.0,-999,-99.99,,,0.20,weatherlink.com 1.10,2013-04-12 00:33:00,
2013-04-11 20:48:00,-90.0,-99.9,30.08,East,79,5.0,-999.0,-999,-99.99,,,0.20,weatherlink.com 1.10,2013-04-12 00:48:00,
2013-04-11 21:03:00,-999.0,-99.9,30.07,North,-999,-999.0,-999.0,-999,-99.99,,,0.20,weatherlink.com 1.10,2013-04-12 01:03:00,
2013-04-11 21:18:00,-999.0,-99.9,30.07,North,-999,-999.0,-999.0,-999,-99.99,,,0.20,weatherlink.com 1.10,2013-04-12 01:18:00,
2013-04-11 21:33:00,-999.0,-99.9,30.07,North,-999,-999.0,-999.0,-999,-99.99,,,0.20,weatherlink.com 1.10,2013-04-12 01:33:00,
2013-04-11 21:48:00,-999.0,-99.9,30.06,North,-999,-999.0,-999.0,-999,-99.99,,,0.20,weatherlink.com 1.10,2013-04-12 01:48:00,
2013-04-11 22:03:00,-999.0,-99.9,30.05,North,-999,-999.0,-999.0,-999,-99.99,,,0.20,weatherlink.com 1.10,2013-04-12 02:03:00,
2013-04-11 22:18:00,-999.0,-99.9,30.06,North,-999,-999.0,-999.0,-999,-99.99,,,0.20,weatherlink.com 1.10,2013-04-12 02:18:00,
2013-04-11 22:33:00,-999.0,-99.9,30.05,North,-999,-999.0,-999.0,-999,-99.99,,,0.20,weatherlink.com 1.10,2013-04-12 02:33:00,
2013-04-11 22:48:00,-999.0,-99.9,30.04,North,-999,-999.0,-999.0,-999,-99.99,,,0.20,weatherlink.com 1.10,2013-04-12 02:48:00,
2013-04-11 23:03:00,-999.0,-99.9,30.02,North,-999,-999.0,-999.0,-999,-99.99,,,0.20,weatherlink.com 1.10,2013-04-12 03:03:00,
2013-04-11 23:18:00,-999.0,-99.9,30.02,North,-999,-999.0,-999.0,-999,-99.99,,,0.20,weatherlink.com 1.10,2013-04-12 03:18:00,
2013-04-11 23:33:00,-999.0,-99.9,30.01,North,-999,-999.0,-999.0,-999,-99.99,,,0.20,weatherlink.com 1.10,2013-04-12 03:33:00,
2013-04-11 23:48:00,-999.0,-99.9,30.00,North,-999,-999.0,-999.0,-999,-99.99,,,0.20,weatherlink.com 1.10,2013-04-12 03:48:00,